Location: Gad�tanya
(48.0500°N, 20.8500°E)
Time: 21:58:02
(UTC+00:00)

NOSS 3-4 (C) - Pass Details

Date: 05 July 2020
Orbit: 891 x 1321 km, 63.4° (Epoch: 12 July)

Event Time Altitude Azimuth Distance (km) Brightness Sun altitude
Rises 20:15:58 0° 318° (NW) 3,753 8.5 -12.1°
Reaches altitude 10° 20:18:34 10° 324° (NW) 2,858 7.5 -12.4°
Maximum altitude 20:25:11 50° 39° (NE) 1,401 4.5 -13.0°
Drops below altitude 10° 20:32:28 10° 114° (ESE) 3,153 5.7 -13.6°
Enters shadow 20:32:30 10° 114° (ESE) 3,162 5.7 -13.6°
